When you browse on this site, cookies collect data to enhance your experience and personalize the content and advertising you see.
Visit our Privacy Policy to learn more. By continuing to use the site, you agree to this use of cookies and data.
  • In Slovakia
  • List of Countries
  • For 7 days
  • Water Temperature
  • Satellite Maps
  • Weather Map
  • Weather Widgets
  • user-avatar
    Login

    Hourly Weather Tirana

    Today, 19 November, Monday

    Time Temperature Precipitation Wind Pressure Humidity
    00:00 +9°C° 0 mm 2 mps 749 mmHg 80%
    01:00 +9°C° 0 mm 2 mps 749 mmHg 81%
    02:00 +8°C° 0 mm 2 mps 749 mmHg 81%
    03:00 +8°C° 0 mm 2 mps 749 mmHg 82%
    04:00 +8°C° 0 mm 2 mps 750 mmHg 82%
    05:00 +8°C° 0 mm 2 mps 750 mmHg 82%
    06:00 +8°C° 0 mm 2 mps 750 mmHg 82%
    07:00 +8°C° 0 mm 2 mps 750 mmHg 82%
    08:00 +9°C° 0 mm 3 mps 751 mmHg 76%
    09:00 +11°C° 0 mm 3 mps 751 mmHg 69%
    10:00 +13°C° 0 mm 3 mps 751 mmHg 62%
    11:00 +14°C° 0 mm 3 mps 751 mmHg 60%
    12:00 +14°C° 0 mm 3 mps 751 mmHg 57%
    13:00 +16°C° 0 mm 3 mps 751 mmHg 54%
    14:00 +14°C° 0.1 mm 4 mps 751 mmHg 59%
    15:00 +14°C° 0.1 mm 4 mps 750 mmHg 64%
    16:00 +13°C° 0.1 mm 5 mps 750 mmHg 69%
    17:00 +11°C° 0.1 mm 6 mps 750 mmHg 71%
    18:00 +11°C° 0.1 mm 7 mps 750 mmHg 73%
    19:00 +10°C° 0.1 mm 7 mps 750 mmHg 75%
    20:00 +11°C° 0.5 mm 8 mps 750 mmHg 76%
    21:00 +11°C° 0.5 mm 8 mps 750 mmHg 76%
    22:00 +11°C° 0.5 mm 8 mps 750 mmHg 77%
    23:00 +11°C° 0.9 mm 8 mps 750 mmHg 78%

    Tomorrow, 20 November, Tuesday

    Time Temperature Precipitation Wind Pressure Humidity
    00:00 +11°C° 0.9 mm 9 mps 750 mmHg 80%
    01:00 +11°C° 0.9 mm 9 mps 750 mmHg 81%
    02:00 +11°C° 2.1 mm 9 mps 750 mmHg 81%
    03:00 +11°C° 2.1 mm 9 mps 750 mmHg 82%
    04:00 +11°C° 2.1 mm 9 mps 749 mmHg 83%
    05:00 +11°C° 3 mm 9 mps 749 mmHg 83%
    06:00 +12°C° 3 mm 9 mps 750 mmHg 83%
    07:00 +12°C° 3 mm 9 mps 750 mmHg 83%
    08:00 +12°C° 2.7 mm 9 mps 750 mmHg 83%
    09:00 +12°C° 2.7 mm 9 mps 750 mmHg 82%
    10:00 +13°C° 2.7 mm 9 mps 750 mmHg 82%
    11:00 +13°C° 2.2 mm 8 mps 750 mmHg 83%
    12:00 +13°C° 2.2 mm 8 mps 750 mmHg 85%
    13:00 +13°C° 2.2 mm 8 mps 749 mmHg 86%
    14:00 +13°C° 0.8 mm 8 mps 749 mmHg 85%
    15:00 +13°C° 0.8 mm 8 mps 749 mmHg 84%
    16:00 +13°C° 0.8 mm 8 mps 749 mmHg 82%
    17:00 +14°C° 0.8 mm 7 mps 749 mmHg 83%
    18:00 +14°C° 0.8 mm 7 mps 749 mmHg 84%
    19:00 +14°C° 0.8 mm 7 mps 749 mmHg 85%
    20:00 +14°C° 0.7 mm 7 mps 749 mmHg 85%
    21:00 +14°C° 0.7 mm 7 mps 749 mmHg 85%
    22:00 +14°C° 0.7 mm 7 mps 749 mmHg 86%
    23:00 +14°C° 0.8 mm 6 mps 748 mmHg 86%

    Day after tomorrow, 21 November, Wednesday

    Time Temperature Precipitation Wind Pressure Humidity
    00:00 +13°C° 0.8 mm 6 mps 748 mmHg 86%
    01:00 +13°C° 0.8 mm 6 mps 748 mmHg 86%
    02:00 +13°C° 2.1 mm 6 mps 748 mmHg 86%
    03:00 +13°C° 2.1 mm 5 mps 747 mmHg 87%
    04:00 +13°C° 2.1 mm 5 mps 747 mmHg 87%
    05:00 +13°C° 1.3 mm 5 mps 747 mmHg 87%
    06:00 +13°C° 1.3 mm 5 mps 748 mmHg 87%
    07:00 +13°C° 1.3 mm 5 mps 748 mmHg 87%
    08:00 +13°C° 1.2 mm 5 mps 748 mmHg 85%
    09:00 +14°C° 1.2 mm 5 mps 749 mmHg 84%
    10:00 +15°C° 1.2 mm 6 mps 749 mmHg 82%
    11:00 +15°C° 1.6 mm 6 mps 749 mmHg 82%
    12:00 +15°C° 1.6 mm 6 mps 749 mmHg 81%
    13:00 +15°C° 1.6 mm 7 mps 749 mmHg 81%
    14:00 +15°C° 1.7 mm 6 mps 750 mmHg 84%
    15:00 +14°C° 1.7 mm 6 mps 750 mmHg 88%
    16:00 +14°C° 1.7 mm 6 mps 750 mmHg 91%
    17:00 +14°C° 1.1 mm 5 mps 750 mmHg 92%
    18:00 +14°C° 1.1 mm 5 mps 751 mmHg 92%
    19:00 +14°C° 1.1 mm 5 mps 751 mmHg 93%
    20:00 +14°C° 0.4 mm 4 mps 752 mmHg 93%
    21:00 +14°C° 0.4 mm 3 mps 752 mmHg 93%
    22:00 +14°C° 0.4 mm 3 mps 753 mmHg 93%
    23:00 +13°C° 0.3 mm 3 mps 753 mmHg 93%

    22 November, Thursday

    Time Temperature Precipitation Wind Pressure Humidity
    00:00 +13°C° 0.3 mm 3 mps 753 mmHg 94%
    01:00 +13°C° 0.3 mm 3 mps 753 mmHg 94%
    02:00 +12°C° 0.2 mm 3 mps 753 mmHg 93%
    03:00 +13°C° 0.2 mm 2 mps 753 mmHg 93%
    04:00 +13°C° 0.2 mm 2 mps 754 mmHg 92%
    05:00 +13°C° 0.1 mm 2 mps 754 mmHg 91%
    06:00 +13°C° 0.1 mm 2 mps 754 mmHg 90%
    07:00 +13°C° 0.1 mm 2 mps 755 mmHg 89%
    08:00 +14°C° 0 mm 2 mps 755 mmHg 84%
    09:00 +15°C° 0 mm 2 mps 755 mmHg 79%
    10:00 +17°C° 0 mm 2 mps 756 mmHg 73%
    11:00 +17°C° 0.1 mm 2 mps 755 mmHg 72%
    12:00 +17°C° 0.1 mm 2 mps 755 mmHg 70%
    13:00 +18°C° 0.1 mm 2 mps 755 mmHg 68%
    14:00 +17°C° 0 mm 2 mps 755 mmHg 72%
    15:00 +16°C° 0 mm 2 mps 756 mmHg 76%
    16:00 +15°C° 0 mm 2 mps 756 mmHg 80%
    17:00 +15°C° 0 mm 2 mps 756 mmHg 82%
    18:00 +14°C° 0 mm 2 mps 757 mmHg 85%
    19:00 +13°C° 0 mm 1 mps 757 mmHg 88%
    20:00 +13°C° 0.1 mm 2 mps 758 mmHg 88%
    21:00 +13°C° 0.1 mm 2 mps 758 mmHg 87%
    22:00 +13°C° 0.1 mm 2 mps 758 mmHg 87%
    23:00 +13°C° 0 mm 2 mps 758 mmHg 86%

    23 November, Friday

    Time Temperature Precipitation Wind Pressure Humidity
    00:00 +12°C° 0 mm 2 mps 759 mmHg 86%
    01:00 +12°C° 0 mm 2 mps 759 mmHg 85%
    02:00 +12°C° 0 mm 2 mps 759 mmHg 85%
    03:00 +12°C° 0 mm 2 mps 759 mmHg 84%
    04:00 +12°C° 0 mm 2 mps 759 mmHg 84%
    05:00 +10°C° 0 mm 2 mps 759 mmHg 83%
    06:00 +10°C° 0 mm 2 mps 760 mmHg 82%
    07:00 +10°C° 0 mm 2 mps 760 mmHg 82%
    08:00 +13°C° 0 mm 2 mps 760 mmHg 76%
    09:00 +15°C° 0 mm 1 mps 760 mmHg 69%
    10:00 +16°C° 0 mm 1 mps 761 mmHg 63%
    11:00 +17°C° 0 mm 2 mps 760 mmHg 61%
    12:00 +17°C° 0 mm 2 mps 760 mmHg 58%
    13:00 +18°C° 0 mm 2 mps 760 mmHg 55%
    14:00 +17°C° 0 mm 2 mps 760 mmHg 60%
    15:00 +16°C° 0 mm 2 mps 760 mmHg 64%
    16:00 +15°C° 0 mm 2 mps 760 mmHg 68%
    17:00 +14°C° 0 mm 2 mps 760 mmHg 70%
    18:00 +14°C° 0 mm 2 mps 761 mmHg 72%
    19:00 +13°C° 0 mm 2 mps 761 mmHg 74%
    20:00 +12°C° 0 mm 2 mps 761 mmHg 75%
    21:00 +12°C° 0 mm 2 mps 761 mmHg 76%
    22:00 +12°C° 0 mm 2 mps 761 mmHg 77%
    23:00 +12°C° 0 mm 2 mps 761 mmHg 78%

    24 November, Saturday

    Time Temperature Precipitation Wind Pressure Humidity
    00:00 +10°C° 0 mm 2 mps 761 mmHg 78%
    01:00 +10°C° 0 mm 2 mps 761 mmHg 78%
    02:00 +10°C° 0 mm 2 mps 761 mmHg 78%
    03:00 +10°C° 0 mm 2 mps 761 mmHg 78%
    04:00 +9°C° 0 mm 2 mps 761 mmHg 78%
    05:00 +9°C° 0 mm 2 mps 761 mmHg 77%
    06:00 +9°C° 0 mm 2 mps 761 mmHg 77%
    07:00 +9°C° 0 mm 2 mps 761 mmHg 77%
    08:00 +12°C° 0 mm 2 mps 761 mmHg 70%
    09:00 +14°C° 0 mm 2 mps 761 mmHg 63%
    10:00 +16°C° 0 mm 2 mps 761 mmHg 55%
    11:00 +16°C° 0 mm 2 mps 760 mmHg 52%
    12:00 +17°C° 0 mm 2 mps 760 mmHg 49%
    13:00 +18°C° 0 mm 1 mps 760 mmHg 46%
    14:00 +16°C° 0 mm 1 mps 759 mmHg 51%
    15:00 +16°C° 0 mm 1 mps 759 mmHg 55%
    16:00 +15°C° 0 mm 2 mps 759 mmHg 59%
    17:00 +14°C° 0 mm 2 mps 759 mmHg 60%
    18:00 +14°C° 0 mm 2 mps 759 mmHg 60%
    19:00 +13°C° 0 mm 2 mps 760 mmHg 60%
    20:00 +13°C° 0 mm 2 mps 760 mmHg 60%
    21:00 +12°C° 0 mm 3 mps 760 mmHg 59%
    22:00 +11°C° 0 mm 3 mps 760 mmHg 59%
    23:00 +11°C° 0 mm 3 mps 759 mmHg 58%
    Show more